Weather History for KELZ - January, 2014

Change the Weather History Date:

Tuesday, January 21, 2014

  Actual Average (KBFD) Record (KBFD)
Temperature  
Mean Temperature 4 °F 21 °F  
Max Temperature 10 °F 29 °F 52 °F (1959)
Min Temperature -2 °F 14 °F -26 °F (1984)
Degree Days  
Heating Degree Days 61 38  
Month to date heating degree days 798  
Since 1 July heating degree days 3854  
Cooling Degree Days 0 0  
Month to date cooling degree days 0  
Year to date cooling degree days 0  
Moisture  
Dew Point -4 °F    
Average Humidity 70    
Maximum Humidity 80    
Minimum Humidity 58    
Precipitation  
Precipitation 0.00 in 0.10 in 2.45 in (1959)
Month to date precipitation 2.27  
Year to date precipitation 2.27  
Sea Level Pressure  
Sea Level Pressure 29.97 in    
Wind  
Wind Speed 6 mph (North)    
Max Wind Speed 10 mph    
Max Gust Speed 16 mph    
Visibility 9 miles    
Events Snow    
T = Trace of Precipitation, MM = Missing Value Source: NWS Daily Summary

Daily Weather History Graph

Daily Weather History Graph

Search for Another Location

Airport or City:

Trip Planner

Search our weather history database for the weather conditions in past years. The results will help you decide how hot, cold, wet, or windy it might be!

Date:

Astronomy

Jan. 21, 2014 Rise Set
Actual Time 7:34 AM EST 5:12 PM EST
Civil Twilight 7:03 AM EST 5:43 PM EST
Nautical Twilight 6:29 AM EST 6:17 PM EST
Astronomical Twilight 5:56 AM EST 6:50 PM EST
Moon 10:50 PM EST (1/21) 9:57 AM EST (1/21)
Length of Visible Light 10h 39m
Length of Day
9h 38m
Waning Gibbous, 75% of the Moon is Illuminated
Jan 21
Waning Gibbous
Jan 24
Last Quarter
Jan 30
New
Feb 6
First Quarter
Feb 14
Full

Hourly Weather History & Observations

Time (EST) Temp. Windchill Dew Point Humidity Pressure Visibility Wind Dir Wind Speed Gust Speed Precip Events Conditions
12:56 AM 10.0 °F -0.9 °F 1.0 °F 67% 29.96 in 10.0 mi NNW 6.9 mph - N/A   Overcast
1:56 AM 9.0 °F -3.2 °F -0.0 °F 67% 29.96 in 10.0 mi NNW 8.1 mph - N/A   Overcast
2:56 AM 8.1 °F -0.5 °F 1.9 °F 76% 29.98 in 10.0 mi North 4.6 mph - N/A   Overcast
3:24 AM 8.6 °F -1.3 °F -0.4 °F 67% 29.86 in 10.0 mi Variable 5.8 mph - N/A   Overcast
3:56 AM 7.0 °F -1.7 °F 1.0 °F 77% 29.98 in 10.0 mi NNW 4.6 mph - N/A   Overcast
4:56 AM 7.0 °F -1.7 °F 1.0 °F 77% 29.96 in 10.0 mi NE 4.6 mph - N/A   Overcast
5:05 AM 6.8 °F -2.0 °F -0.4 °F 72% 29.83 in 10.0 mi NE 4.6 mph - N/A   Overcast
5:56 AM 5.0 °F -5.6 °F -0.0 °F 80% 29.96 in 10.0 mi NNE 5.8 mph - N/A   Overcast
6:56 AM 3.9 °F -5.3 °F -2.0 °F 76% 29.99 in 10.0 mi NNE 4.6 mph - N/A   Overcast
7:26 AM 3.2 °F -6.2 °F -2.2 °F 78% 29.86 in 8.0 mi NNE 4.6 mph - N/A   Overcast
7:45 AM 3.2 °F -7.8 °F -2.2 °F 78% 29.87 in 5.0 mi NE 5.8 mph - N/A   Haze
7:56 AM 3.9 °F -6.9 °F -2.0 °F 76% 30.01 in 5.0 mi NE 5.8 mph - N/A   Haze
8:13 AM 3.2 °F -7.8 °F -2.2 °F 78% 29.87 in 10.0 mi North 5.8 mph - N/A   Overcast
8:56 AM 3.9 °F -6.9 °F -2.9 °F 73% 30.02 in 6.0 mi NNE 5.8 mph - N/A   Haze
9:48 AM 3.2 °F -6.2 °F -2.2 °F 78% 29.90 in 10.0 mi NE 4.6 mph - N/A   Overcast
9:56 AM 5.0 °F -6.9 °F -4.0 °F 66% 30.04 in 10.0 mi NNE 6.9 mph - N/A   Overcast
10:46 AM 6.8 °F -5.9 °F -2.2 °F 67% 29.89 in 10.0 mi NE 8.1 mph - N/A   Overcast
10:56 AM 6.1 °F -2.8 °F -4.0 °F 63% 30.03 in 10.0 mi Variable 4.6 mph - N/A   Overcast
11:56 AM 6.1 °F -5.6 °F -2.9 °F 67% 30.01 in 10.0 mi NNE 6.9 mph - N/A   Mostly Cloudy
12:56 PM 7.0 °F -7.5 °F -5.1 °F 58% 30.00 in 10.0 mi NNW 10.4 mph 16.1 mph N/A   Overcast
1:56 PM 6.1 °F -4.3 °F -5.1 °F 60% 30.00 in 10.0 mi North 5.8 mph - N/A   Overcast
2:56 PM 6.1 °F -4.3 °F -5.1 °F 60% 29.99 in 10.0 mi Variable 5.8 mph - N/A   Overcast
3:56 PM 5.0 °F -6.9 °F -7.1 °F 58% 30.00 in 10.0 mi North 6.9 mph - N/A   Mostly Cloudy
4:56 PM 3.0 °F -10.5 °F -7.1 °F 63% 30.01 in 10.0 mi North 8.1 mph - N/A   Mostly Cloudy
5:06 PM 1.4 °F -11.3 °F -7.6 °F 66% 29.86 in 10.0 mi North 6.9 mph - N/A   Scattered Clouds
5:56 PM 1.0 °F -12.9 °F -8.0 °F 66% 30.04 in 10.0 mi North 8.1 mph - N/A   Mostly Cloudy
6:46 PM -0.4 °F -15.7 °F -7.6 °F 72% 29.89 in 10.0 mi North 9.2 mph - N/A   Partly Cloudy
6:56 PM -0.9 °F -11.0 °F -8.0 °F 72% 30.06 in 10.0 mi North 4.6 mph - N/A   Scattered Clouds
7:04 PM -0.4 °F -10.4 °F -7.6 °F 72% 29.90 in 10.0 mi North 4.6 mph - N/A   Mostly Cloudy
7:56 PM -0.0 °F -9.9 °F -8.0 °F 69% 30.06 in 4.0 mi Variable 4.6 mph - 0.00 in Snow Light Snow
8:56 PM -2.0 °F -15.4 °F -9.9 °F 69% 30.08 in 10.0 mi North 6.9 mph - 0.00 in   Overcast
9:56 PM -2.0 °F -15.4 °F -9.0 °F 72% 30.08 in 7.0 mi NNW 6.9 mph - 0.00 in Snow Light Snow
10:56 PM -2.9 °F -15.0 °F -9.9 °F 72% 30.07 in 10.0 mi North 5.8 mph - 0.00 in   Overcast
11:56 PM -2.9 °F -15.0 °F -11.0 °F 68% 30.06 in 10.0 mi Variable 5.8 mph - 0.00 in   Overcast